Location: Baggett Branch
(32.6074°N, 97.0167°W)
Time: 10:29:45
(UTC+00:00)

Cosmos 1908 Rocket - Pass Details

Date: 10 February 2026
Orbit: 600 x 624 km, 82.5° (Epoch: 7 March)

Event Time Altitude Azimuth Distance (km) Brightness Sun altitude
Rises 12:42:50 0° 210° (SSW) 2,841 6.8 -7.5°
Reaches altitude 10° 12:45:16 10° 222° (SW) 1,945 5.8 -7.0°
Maximum altitude 12:48:58 28° 281° (WNW) 1,153 4.4 -6.2°
Drops below altitude 10° 12:52:43 10° 341° (NNW) 1,968 5.8 -5.5°
Sets 12:55:13 0° 353° (N) 2,881 6.8 -5.0°
